Location: Brunembert
(50.7122°N, 1.8935°E)
Time: 10:34:18
(UTC+00:00)

Cosmos 1655 Rocket - Pass Details

Date: 22 April 2021
Orbit: 970 x 1007 km, 82.9° (Epoch: 05 May)

Event Time Altitude Azimuth Distance (km) Brightness Sun altitude
Rises 20:35:53 0° 349° (NNW) 3,707 7.9 -13.9°
Reaches altitude 10° 20:38:25 10° 348° (NNW) 2,750 7.2 -14.2°
Maximum altitude 20:44:42 75° 264° (W) 1,013 4.2 -14.9°
Drops below altitude 10° 20:50:53 10° 180° (S) 2,711 5.9 -15.7°
Enters shadow 20:50:54 10° 180° (S) 2,718 5.9 -15.7°
